LIC0213 SAEZ-SAZS

Flight info

Callsign LIC0213
Flight time 1h 55m
Altitude 38000
Route TORUL1E TORUL UT654 ORERA ORERA2Q
Aircraft A320/M-SDE3FGHIRWY/LB1

Departure

Time 2026-05-07 17:09
Airport Ezeiza International Airport - Ministro Pistarini (SAEZ)

Arrival

Time 2026-05-07 19:05
Airport Teniente Luis Candelaria International Airport (SAZS)
Time Latitude Longitude Altitude Speed Heading
2026-05-07 16:56 -34.81679 -58.53647 75 ft 0 kts 128°
2026-05-07 17:00 -34.81672 -58.53658 64 ft 3 kts 128°
2026-05-07 17:00 -34.81660 -58.53677 71 ft 3 kts 128°
2026-05-07 17:00 -34.81647 -58.53695 70 ft 3 kts 136°
2026-05-07 17:01 -34.81633 -58.53712 64 ft 3 kts 146°
2026-05-07 17:01 -34.81616 -58.53723 67 ft 3 kts 165°
2026-05-07 17:01 -34.81597 -58.53724 71 ft 3 kts 206°
2026-05-07 17:01 -34.81590 -58.53720 69 ft 0 kts 224°
2026-05-07 17:02 -34.81590 -58.53721 70 ft 1 kts 223°
2026-05-07 17:02 -34.81625 -58.53755 72 ft 10 kts 211°
2026-05-07 17:03 -34.81701 -58.53748 71 ft 11 kts 156°
2026-05-07 17:03 -34.81768 -58.53708 73 ft 11 kts 154°
2026-05-07 17:03 -34.81855 -58.53651 71 ft 15 kts 136°
2026-05-07 17:03 -34.81873 -58.53550 70 ft 10 kts 146°
2026-05-07 17:04 -34.81934 -58.53477 72 ft 14 kts 116°
2026-05-07 17:04 -34.81957 -58.53371 74 ft 12 kts 104°
2026-05-07 17:04 -34.81980 -58.53252 76 ft 18 kts 103°
2026-05-07 17:04 -34.82007 -58.53111 77 ft 16 kts 103°
2026-05-07 17:05 -34.82029 -58.52994 79 ft 13 kts 103°
2026-05-07 17:05 -34.82048 -58.52898 80 ft 11 kts 103°
2026-05-07 17:05 -34.82070 -58.52785 74 ft 17 kts 103°
2026-05-07 17:05 -34.82096 -58.52651 67 ft 16 kts 103°
2026-05-07 17:06 -34.82120 -58.52524 76 ft 15 kts 103°
2026-05-07 17:06 -34.82143 -58.52405 71 ft 14 kts 103°
2026-05-07 17:06 -34.82164 -58.52296 75 ft 13 kts 104°
2026-05-07 17:06 -34.82188 -58.52198 72 ft 11 kts 106°
2026-05-07 17:07 -34.82209 -58.52109 75 ft 10 kts 104°
2026-05-07 17:07 -34.82220 -58.52055 85 ft 10 kts 103°
2026-05-07 17:07 -34.82243 -58.51941 71 ft 15 kts 104°
2026-05-07 17:07 -34.82268 -58.51821 66 ft 15 kts 109°
2026-05-07 17:08 -34.82349 -58.51795 76 ft 13 kts 191°
2026-05-07 17:08 -34.82458 -58.51822 82 ft 15 kts 192°
2026-05-07 17:08 -34.82507 -58.51843 84 ft 7 kts 213°
2026-05-07 17:08 -34.82520 -58.51902 82 ft 10 kts 277°
2026-05-07 17:09 -34.82482 -58.52125 84 ft 60 kts 282°
2026-05-07 17:09 -34.82345 -58.52895 84 ft 123 kts 282°
2026-05-07 17:09 -34.82147 -58.54051 389 ft 148 kts 281°
2026-05-07 17:09 -34.81886 -58.55338 909 ft 166 kts 281°
2026-05-07 17:10 -34.81598 -58.56796 1364 ft 188 kts 278°
2026-05-07 17:10 -34.81326 -58.58458 1849 ft 212 kts 277°
2026-05-07 17:10 -34.81086 -58.60325 2438 ft 231 kts 266°
2026-05-07 17:10 -34.81585 -58.62176 3295 ft 238 kts 237°
2026-05-07 17:11 -34.82646 -58.63761 4299 ft 244 kts 229°
2026-05-07 17:11 -34.83856 -58.65248 5233 ft 252 kts 228°
2026-05-07 17:11 -34.85071 -58.66809 6052 ft 259 kts 232°
2026-05-07 17:11 -34.86278 -58.68473 6874 ft 265 kts 233°
2026-05-07 17:12 -34.87499 -58.70198 7726 ft 271 kts 234°
2026-05-07 17:12 -34.88737 -58.71956 8589 ft 276 kts 234°
2026-05-07 17:12 -34.90005 -58.73749 9462 ft 281 kts 234°
2026-05-07 17:12 -34.91297 -58.75570 10255 ft 287 kts 234°
2026-05-07 17:13 -34.92656 -58.77487 10591 ft 310 kts 234°
2026-05-07 17:13 -34.94098 -58.79521 10994 ft 328 kts 234°
2026-05-07 17:13 -34.95614 -58.81639 11730 ft 334 kts 234°
2026-05-07 17:13 -34.97150 -58.83776 12630 ft 336 kts 234°
2026-05-07 17:14 -34.98694 -58.85925 13542 ft 338 kts 234°
2026-05-07 17:14 -35.00250 -58.88094 14264 ft 341 kts 234°
2026-05-07 17:14 -35.01820 -58.90290 14918 ft 346 kts 235°
2026-05-07 17:14 -35.03417 -58.92526 15571 ft 350 kts 236°
2026-05-07 17:15 -35.05028 -58.94786 16212 ft 355 kts 236°
2026-05-07 17:15 -35.06636 -58.97046 16838 ft 359 kts 236°
2026-05-07 17:15 -35.08308 -58.99397 17484 ft 364 kts 236°
2026-05-07 17:15 -35.09976 -59.01741 18092 ft 369 kts 237°
2026-05-07 17:16 -35.11651 -59.04092 18674 ft 373 kts 238°
2026-05-07 17:16 -35.13356 -59.06486 19317 ft 374 kts 238°
2026-05-07 17:16 -35.15070 -59.08897 19888 ft 378 kts 239°
2026-05-07 17:16 -35.16802 -59.11346 20411 ft 383 kts 239°
2026-05-07 17:17 -35.18560 -59.13835 20926 ft 389 kts 240°
2026-05-07 17:17 -35.20295 -59.16377 21435 ft 388 kts 245°
2026-05-07 17:17 -35.21869 -59.19081 21948 ft 392 kts 246°
2026-05-07 17:17 -35.23448 -59.21821 22456 ft 396 kts 246°
2026-05-07 17:18 -35.25045 -59.24603 22947 ft 401 kts 247°
2026-05-07 17:18 -35.26659 -59.27420 23403 ft 406 kts 247°
2026-05-07 17:18 -35.28288 -59.30268 23800 ft 410 kts 247°
2026-05-07 17:18 -35.29933 -59.33146 24208 ft 415 kts 246°
2026-05-07 17:19 -35.31583 -59.36028 24532 ft 421 kts 246°
2026-05-07 17:19 -35.33282 -59.38989 24887 ft 426 kts 246°
2026-05-07 17:19 -35.34995 -59.41973 25249 ft 430 kts 246°
2026-05-07 17:19 -35.36724 -59.44985 25603 ft 434 kts 246°
2026-05-07 17:20 -35.38481 -59.48019 25951 ft 439 kts 246°
2026-05-07 17:20 -35.40272 -59.51071 26302 ft 443 kts 245°
2026-05-07 17:20 -35.42090 -59.54153 26647 ft 447 kts 245°
2026-05-07 17:20 -35.43920 -59.57257 26989 ft 450 kts 245°
2026-05-07 17:21 -35.45759 -59.60385 27365 ft 454 kts 245°
2026-05-07 17:21 -35.47610 -59.63544 27684 ft 458 kts 245°
2026-05-07 17:21 -35.49473 -59.66736 28000 ft 462 kts 245°
2026-05-07 17:21 -35.51321 -59.69912 28314 ft 465 kts 245°
2026-05-07 17:22 -35.53214 -59.73164 28647 ft 468 kts 245°
2026-05-07 17:22 -35.55119 -59.76437 28958 ft 471 kts 245°
2026-05-07 17:22 -35.57031 -59.79723 29256 ft 475 kts 245°
2026-05-07 17:22 -35.58957 -59.83036 29554 ft 478 kts 245°
2026-05-07 17:23 -35.60899 -59.86381 29823 ft 481 kts 245°
2026-05-07 17:23 -35.62825 -59.89698 30095 ft 483 kts 245°
2026-05-07 17:23 -35.64779 -59.93066 30392 ft 483 kts 245°
2026-05-07 17:23 -35.66731 -59.96437 30682 ft 483 kts 244°
2026-05-07 17:24 -35.68682 -59.99805 30944 ft 483 kts 244°
2026-05-07 17:24 -35.70629 -60.03175 31292 ft 481 kts 244°
2026-05-07 17:24 -35.72564 -60.06526 31680 ft 479 kts 244°
2026-05-07 17:24 -35.74489 -60.09863 32062 ft 476 kts 244°
2026-05-07 17:25 -35.76404 -60.13183 32446 ft 473 kts 244°
2026-05-07 17:25 -35.78303 -60.16476 32825 ft 471 kts 244°
2026-05-07 17:25 -35.80195 -60.19761 33302 ft 467 kts 244°
2026-05-07 17:25 -35.82040 -60.22963 33771 ft 461 kts 243°
2026-05-07 17:26 -35.83887 -60.26180 34130 ft 458 kts 243°
2026-05-07 17:26 -35.85719 -60.29392 34436 ft 456 kts 243°
2026-05-07 17:26 -35.87541 -60.32596 34701 ft 456 kts 243°
2026-05-07 17:26 -35.89368 -60.35803 34949 ft 456 kts 243°
2026-05-07 17:27 -35.91197 -60.39007 35198 ft 456 kts 242°
2026-05-07 17:27 -35.93023 -60.42205 35435 ft 455 kts 242°
2026-05-07 17:27 -35.94847 -60.45395 35679 ft 455 kts 242°
2026-05-07 17:27 -35.96650 -60.48548 35959 ft 454 kts 241°
2026-05-07 17:28 -35.98471 -60.51739 36217 ft 453 kts 241°
2026-05-07 17:28 -36.00283 -60.54918 36458 ft 452 kts 241°
2026-05-07 17:28 -36.02091 -60.58097 36673 ft 452 kts 240°
2026-05-07 17:28 -36.03892 -60.61271 36882 ft 452 kts 240°
2026-05-07 17:29 -36.05702 -60.64459 37083 ft 452 kts 240°
2026-05-07 17:29 -36.07510 -60.67657 37268 ft 452 kts 240°
2026-05-07 17:29 -36.09312 -60.70848 37446 ft 452 kts 240°
2026-05-07 17:29 -36.11108 -60.74024 37645 ft 452 kts 240°
2026-05-07 17:30 -36.14705 -60.80399 37721 ft 450 kts 239°
2026-05-07 17:30 -36.18246 -60.86717 37716 ft 449 kts 239°
2026-05-07 17:31 -36.21802 -60.93079 37722 ft 449 kts 239°
2026-05-07 17:31 -36.25351 -60.99453 37727 ft 449 kts 240°
2026-05-07 17:32 -36.28894 -61.05821 37748 ft 449 kts 239°
2026-05-07 17:32 -36.31848 -61.11124 37755 ft 449 kts 239°
2026-05-07 17:33 -36.35970 -61.18538 37769 ft 449 kts 239°
2026-05-07 17:33 -36.39512 -61.24919 37765 ft 449 kts 239°
2026-05-07 17:34 -36.43041 -61.31313 37758 ft 448 kts 239°
2026-05-07 17:34 -36.46536 -61.37666 37783 ft 448 kts 239°
2026-05-07 17:35 -36.50060 -61.44062 37776 ft 447 kts 239°
2026-05-07 17:35 -36.53569 -61.50448 37771 ft 447 kts 239°
2026-05-07 17:36 -36.57074 -61.56838 37773 ft 446 kts 239°
2026-05-07 17:36 -36.60547 -61.63189 37772 ft 446 kts 239°
2026-05-07 17:37 -36.64040 -61.69575 37783 ft 445 kts 239°
2026-05-07 17:37 -36.67509 -61.75925 37778 ft 445 kts 239°
2026-05-07 17:38 -36.70983 -61.82311 37778 ft 445 kts 239°
2026-05-07 17:38 -36.74453 -61.88705 37772 ft 445 kts 239°
2026-05-07 17:39 -36.77918 -61.95109 37798 ft 445 kts 238°
2026-05-07 17:39 -36.81372 -62.01482 37793 ft 445 kts 239°
2026-05-07 17:40 -36.84845 -62.07895 37794 ft 445 kts 239°
2026-05-07 17:40 -36.88312 -62.14309 37792 ft 444 kts 239°
2026-05-07 17:41 -36.91741 -62.20685 37802 ft 444 kts 239°
2026-05-07 17:41 -36.95186 -62.27107 37809 ft 443 kts 238°
2026-05-07 17:42 -36.98619 -62.33507 37816 ft 442 kts 238°
2026-05-07 17:42 -37.02016 -62.39854 37807 ft 441 kts 239°
2026-05-07 17:43 -37.05431 -62.46246 37813 ft 440 kts 238°
2026-05-07 17:43 -37.08827 -62.52643 37821 ft 440 kts 238°
2026-05-07 17:44 -37.12204 -62.58990 37820 ft 439 kts 238°
2026-05-07 17:44 -37.15594 -62.65363 37822 ft 439 kts 238°
2026-05-07 17:45 -37.18974 -62.71743 37826 ft 439 kts 238°
2026-05-07 17:45 -37.22352 -62.78127 37824 ft 439 kts 238°
2026-05-07 17:46 -37.25733 -62.84515 37823 ft 439 kts 238°
2026-05-07 17:46 -37.29076 -62.90852 37833 ft 438 kts 238°
2026-05-07 17:47 -37.32436 -62.97238 37833 ft 437 kts 238°
2026-05-07 17:47 -37.35791 -63.03626 37839 ft 436 kts 238°
2026-05-07 17:48 -37.39128 -63.09965 37832 ft 436 kts 238°
2026-05-07 17:48 -37.42479 -63.16337 37844 ft 436 kts 237°
2026-05-07 17:49 -37.45810 -63.22718 37846 ft 435 kts 237°
2026-05-07 17:49 -37.49140 -63.29088 37849 ft 434 kts 237°
2026-05-07 17:50 -37.52446 -63.35417 37843 ft 435 kts 237°
2026-05-07 17:50 -37.55214 -63.40718 37848 ft 434 kts 237°
2026-05-07 17:51 -37.58536 -63.47089 37854 ft 434 kts 236°
2026-05-07 17:51 -37.62379 -63.54497 37858 ft 433 kts 237°
2026-05-07 17:52 -37.65118 -63.59791 37860 ft 433 kts 237°
2026-05-07 17:52 -37.68419 -63.66180 37860 ft 433 kts 237°
2026-05-07 17:53 -37.71685 -63.72513 37862 ft 432 kts 237°
2026-05-07 17:53 -37.74970 -63.78886 37862 ft 431 kts 236°
2026-05-07 17:54 -37.78239 -63.85233 37865 ft 430 kts 236°
2026-05-07 17:54 -37.81499 -63.91578 37867 ft 430 kts 236°
2026-05-07 17:55 -37.84745 -63.97921 37867 ft 429 kts 236°
2026-05-07 17:55 -37.87981 -64.04269 37867 ft 429 kts 236°
2026-05-07 17:56 -37.91209 -64.10598 37873 ft 427 kts 235°
2026-05-07 17:56 -37.94408 -64.16868 37881 ft 425 kts 235°
2026-05-07 17:57 -37.97070 -64.22097 37886 ft 424 kts 235°
2026-05-07 17:57 -38.00794 -64.29452 37883 ft 423 kts 236°
2026-05-07 17:58 -38.03978 -64.35746 37874 ft 423 kts 236°
2026-05-07 17:58 -38.07131 -64.41977 37880 ft 421 kts 234°
2026-05-07 17:59 -38.10289 -64.48230 37885 ft 419 kts 234°
2026-05-07 17:59 -38.13414 -64.54457 37884 ft 417 kts 234°
2026-05-07 18:00 -38.16519 -64.60644 37878 ft 416 kts 235°
2026-05-07 18:00 -38.19632 -64.66861 37879 ft 415 kts 235°
2026-05-07 18:01 -38.22736 -64.73073 37877 ft 415 kts 235°
2026-05-07 18:01 -38.25815 -64.79250 37877 ft 415 kts 235°
2026-05-07 18:02 -38.30456 -64.88585 37875 ft 416 kts 235°
2026-05-07 18:03 -38.33542 -64.94815 37878 ft 415 kts 235°
2026-05-07 18:03 -38.36631 -65.01045 37878 ft 414 kts 234°
2026-05-07 18:04 -38.39688 -65.07220 37888 ft 413 kts 234°
2026-05-07 18:04 -38.42746 -65.13416 37891 ft 412 kts 234°
2026-05-07 18:05 -38.45788 -65.19604 37884 ft 411 kts 234°
2026-05-07 18:05 -38.48831 -65.25794 37893 ft 411 kts 234°
2026-05-07 18:06 -38.51850 -65.31948 37875 ft 410 kts 233°
2026-05-07 18:06 -38.54873 -65.38134 37898 ft 409 kts 233°
2026-05-07 18:07 -38.57886 -65.44301 37894 ft 408 kts 233°
2026-05-07 18:07 -38.60895 -65.50473 37912 ft 408 kts 233°
2026-05-07 18:08 -38.63879 -65.56617 37908 ft 408 kts 233°
2026-05-07 18:08 -38.66880 -65.62803 37895 ft 408 kts 233°
2026-05-07 18:09 -38.69865 -65.68961 37920 ft 406 kts 233°
2026-05-07 18:09 -38.72822 -65.75062 37919 ft 405 kts 233°
2026-05-07 18:10 -38.75791 -65.81199 37931 ft 404 kts 233°
2026-05-07 18:10 -38.78748 -65.87320 37942 ft 403 kts 233°
2026-05-07 18:11 -38.81689 -65.93435 37909 ft 403 kts 233°
2026-05-07 18:11 -38.84602 -65.99512 37927 ft 401 kts 233°
2026-05-07 18:12 -38.87516 -66.05593 37935 ft 399 kts 233°
2026-05-07 18:12 -38.90423 -66.11678 37933 ft 398 kts 233°
2026-05-07 18:13 -38.93315 -66.17746 37937 ft 397 kts 233°
2026-05-07 18:13 -38.96202 -66.23827 37934 ft 397 kts 233°
2026-05-07 18:14 -38.99053 -66.29838 37946 ft 395 kts 234°
2026-05-07 18:14 -39.01907 -66.35869 37949 ft 393 kts 234°
2026-05-07 18:15 -39.04751 -66.41877 37956 ft 392 kts 234°
2026-05-07 18:15 -39.07563 -66.47849 37955 ft 392 kts 234°
2026-05-07 18:16 -39.10379 -66.53848 37958 ft 391 kts 234°
2026-05-07 18:16 -39.13197 -66.59848 37939 ft 390 kts 234°
2026-05-07 18:17 -39.16005 -66.65837 37966 ft 390 kts 234°
2026-05-07 18:17 -39.18809 -66.71825 37962 ft 389 kts 234°
2026-05-07 18:18 -39.21593 -66.77773 37972 ft 389 kts 234°
2026-05-07 18:18 -39.24394 -66.83769 37972 ft 389 kts 234°
2026-05-07 18:19 -39.27185 -66.89773 37930 ft 389 kts 234°
2026-05-07 18:19 -39.29960 -66.95749 37933 ft 391 kts 234°
2026-05-07 18:20 -39.32762 -67.01803 37937 ft 393 kts 234°
2026-05-07 18:20 -39.35571 -67.07873 37949 ft 394 kts 234°
2026-05-07 18:21 -39.38381 -67.13954 37960 ft 394 kts 234°
2026-05-07 18:21 -39.41199 -67.20065 37968 ft 395 kts 234°
2026-05-07 18:22 -39.44004 -67.26175 37969 ft 395 kts 235°
2026-05-07 18:22 -39.46812 -67.32290 37991 ft 395 kts 235°
2026-05-07 18:23 -39.49602 -67.38366 37996 ft 394 kts 235°
2026-05-07 18:23 -39.52400 -67.44492 38023 ft 394 kts 235°
2026-05-07 18:24 -39.55169 -67.50569 37999 ft 392 kts 235°
2026-05-07 18:24 -39.57950 -67.56661 38001 ft 392 kts 236°
2026-05-07 18:25 -39.60711 -67.62739 38008 ft 390 kts 236°
2026-05-07 18:25 -39.63466 -67.68813 38009 ft 389 kts 236°
2026-05-07 18:26 -39.66193 -67.74832 38007 ft 389 kts 236°
2026-05-07 18:26 -39.68930 -67.80889 38010 ft 389 kts 236°
2026-05-07 18:27 -39.71667 -67.86956 38005 ft 388 kts 236°
2026-05-07 18:27 -39.74396 -67.93014 38006 ft 388 kts 236°
2026-05-07 18:28 -39.77120 -67.99082 38014 ft 388 kts 236°
2026-05-07 18:28 -39.79835 -68.05151 38015 ft 388 kts 236°
2026-05-07 18:29 -39.82616 -68.11156 38011 ft 387 kts 234°
2026-05-07 18:29 -39.85595 -68.16953 38012 ft 386 kts 232°
2026-05-07 18:30 -39.88621 -68.22741 37975 ft 387 kts 232°
2026-05-07 18:30 -39.91610 -68.28594 37993 ft 388 kts 232°
2026-05-07 18:31 -39.94592 -68.34493 38004 ft 389 kts 232°
2026-05-07 18:31 -39.97556 -68.40369 38010 ft 390 kts 233°
2026-05-07 18:32 -40.00533 -68.46294 38020 ft 390 kts 233°
2026-05-07 18:32 -40.03009 -68.51215 38022 ft 390 kts 233°
2026-05-07 18:33 -40.06000 -68.57155 37992 ft 391 kts 232°
2026-05-07 18:33 -40.08965 -68.63063 38005 ft 391 kts 233°
2026-05-07 18:34 -40.11943 -68.69027 38019 ft 392 kts 233°
2026-05-07 18:34 -40.14925 -68.75007 38021 ft 392 kts 233°
2026-05-07 18:35 -40.17910 -68.80989 38024 ft 392 kts 233°
2026-05-07 18:35 -40.20875 -68.86937 38028 ft 392 kts 233°
2026-05-07 18:36 -40.23843 -68.92900 38057 ft 390 kts 233°
2026-05-07 18:36 -40.26771 -68.98819 38051 ft 388 kts 233°
2026-05-07 18:37 -40.29719 -69.04767 38053 ft 388 kts 233°
2026-05-07 18:37 -40.32643 -69.10693 38055 ft 387 kts 233°
2026-05-07 18:38 -40.35545 -69.16595 38051 ft 387 kts 233°
2026-05-07 18:38 -40.38458 -69.22522 38018 ft 386 kts 233°
2026-05-07 18:39 -40.41371 -69.28454 38035 ft 386 kts 233°
2026-05-07 18:39 -40.44284 -69.34397 38041 ft 387 kts 233°
2026-05-07 18:40 -40.47181 -69.40301 38052 ft 387 kts 233°
2026-05-07 18:40 -40.50093 -69.46263 38055 ft 387 kts 233°
2026-05-07 18:41 -40.52993 -69.52227 38055 ft 387 kts 233°
2026-05-07 18:41 -40.55899 -69.58194 38042 ft 386 kts 233°
2026-05-07 18:42 -40.58794 -69.64141 38069 ft 386 kts 233°
2026-05-07 18:42 -40.61670 -69.70065 38064 ft 386 kts 233°
2026-05-07 18:43 -40.64564 -69.76046 37572 ft 388 kts 233°
2026-05-07 18:43 -40.66025 -69.79076 36420 ft 396 kts 233°
2026-05-07 18:43 -40.67513 -69.82160 35402 ft 400 kts 234°
2026-05-07 18:43 -40.69004 -69.85259 34454 ft 401 kts 234°
2026-05-07 18:44 -40.70501 -69.88370 33408 ft 401 kts 234°
2026-05-07 18:44 -40.71991 -69.91464 32420 ft 399 kts 234°
2026-05-07 18:44 -40.73473 -69.94546 31527 ft 396 kts 234°
2026-05-07 18:44 -40.74950 -69.97622 30666 ft 394 kts 234°
2026-05-07 18:45 -40.76412 -70.00671 29404 ft 396 kts 234°
2026-05-07 18:45 -40.77894 -70.03757 27558 ft 409 kts 235°
2026-05-07 18:45 -40.79431 -70.06955 26183 ft 413 kts 235°
2026-05-07 18:45 -40.80934 -70.10100 25834 ft 395 kts 235°
2026-05-07 18:46 -40.82360 -70.13096 25651 ft 376 kts 235°
2026-05-07 18:46 -40.83729 -70.15979 25170 ft 366 kts 235°
2026-05-07 18:46 -40.85077 -70.18813 24553 ft 361 kts 235°
2026-05-07 18:46 -40.86409 -70.21607 23923 ft 358 kts 235°
2026-05-07 18:47 -40.87747 -70.24408 22777 ft 363 kts 235°
2026-05-07 18:47 -40.89117 -70.27280 21403 ft 374 kts 236°
2026-05-07 18:47 -40.90496 -70.30179 20517 ft 375 kts 236°
2026-05-07 18:47 -40.91845 -70.33030 20361 ft 356 kts 236°
2026-05-07 18:48 -40.93134 -70.35756 20130 ft 342 kts 236°
2026-05-07 18:48 -40.94370 -70.38367 19979 ft 327 kts 236°
2026-05-07 18:48 -40.95551 -70.40867 19857 ft 313 kts 236°
2026-05-07 18:48 -40.96678 -70.43259 19728 ft 299 kts 236°
2026-05-07 18:49 -40.97689 -70.45564 19613 ft 288 kts 243°
2026-05-07 18:49 -40.98067 -70.48180 19494 ft 289 kts 265°
2026-05-07 18:49 -40.97568 -70.50764 19290 ft 302 kts 287°
2026-05-07 18:49 -40.96280 -70.53026 19066 ft 317 kts 308°
2026-05-07 18:50 -40.94360 -70.54570 18843 ft 333 kts 330°
2026-05-07 18:50 -40.92032 -70.55066 18611 ft 349 kts 355°
2026-05-07 18:50 -40.89651 -70.54284 18402 ft 358 kts 23°
2026-05-07 18:50 -40.87710 -70.52308 18175 ft 357 kts 52°
2026-05-07 18:51 -40.86532 -70.49491 17834 ft 345 kts 81°
2026-05-07 18:51 -40.86289 -70.46439 17507 ft 329 kts 106°
2026-05-07 18:51 -40.86883 -70.43473 17290 ft 337 kts 126°
2026-05-07 18:51 -40.88177 -70.40991 16996 ft 321 kts 146°
2026-05-07 18:52 -40.89923 -70.39307 16733 ft 302 kts 164°
2026-05-07 18:52 -40.91865 -70.38483 16484 ft 286 kts 180°
2026-05-07 18:52 -40.93799 -70.38469 16235 ft 274 kts 194°
2026-05-07 18:52 -40.95598 -70.39179 15988 ft 267 kts 208°
2026-05-07 18:53 -40.97145 -70.40496 15754 ft 264 kts 221°
2026-05-07 18:53 -40.98355 -70.42321 15520 ft 266 kts 234°
2026-05-07 18:53 -40.99283 -70.44451 15293 ft 267 kts 237°
2026-05-07 18:53 -41.00201 -70.46589 15061 ft 266 kts 236°
2026-05-07 18:54 -41.01116 -70.48717 14836 ft 266 kts 236°
2026-05-07 18:54 -41.02028 -70.50838 14597 ft 265 kts 236°
2026-05-07 18:54 -41.02936 -70.52950 14366 ft 264 kts 236°
2026-05-07 18:54 -41.03850 -70.55061 14116 ft 262 kts 234°
2026-05-07 18:55 -41.04939 -70.57000 13651 ft 275 kts 228°
2026-05-07 18:55 -41.06162 -70.58979 12963 ft 279 kts 227°
2026-05-07 18:55 -41.07401 -70.60978 12346 ft 281 kts 227°
2026-05-07 18:55 -41.08643 -70.62989 11729 ft 283 kts 227°
2026-05-07 18:56 -41.09896 -70.65020 11104 ft 285 kts 227°
2026-05-07 18:56 -41.11157 -70.67065 10477 ft 287 kts 227°
2026-05-07 18:56 -41.12393 -70.69078 10231 ft 277 kts 227°
2026-05-07 18:56 -41.13581 -70.71022 10107 ft 264 kts 226°
2026-05-07 18:57 -41.14709 -70.72870 9967 ft 252 kts 226°
2026-05-07 18:57 -41.15798 -70.74651 9834 ft 246 kts 226°
2026-05-07 18:57 -41.16855 -70.76377 9705 ft 235 kts 226°
2026-05-07 18:57 -41.17863 -70.78024 9551 ft 224 kts 227°
2026-05-07 18:58 -41.18828 -70.79600 9345 ft 217 kts 227°
2026-05-07 18:58 -41.19780 -70.81151 8956 ft 217 kts 227°
2026-05-07 18:58 -41.20727 -70.82694 8578 ft 219 kts 228°
2026-05-07 18:58 -41.21708 -70.84293 7955 ft 226 kts 229°
2026-05-07 18:59 -41.22695 -70.85905 7377 ft 221 kts 230°
2026-05-07 18:59 -41.23459 -70.87588 7123 ft 207 kts 248°
2026-05-07 18:59 -41.23743 -70.89430 6922 ft 204 kts 264°
2026-05-07 18:59 -41.23555 -70.91305 6678 ft 208 kts 282°
2026-05-07 19:00 -41.22982 -70.93070 6417 ft 204 kts 288°
2026-05-07 19:00 -41.22408 -70.94720 6166 ft 189 kts 289°
2026-05-07 19:00 -41.21883 -70.96234 5857 ft 172 kts 289°
2026-05-07 19:00 -41.21403 -70.97626 5659 ft 160 kts 289°
2026-05-07 19:01 -41.20956 -70.98918 5444 ft 149 kts 289°
2026-05-07 19:01 -41.20541 -71.00120 5249 ft 137 kts 289°
2026-05-07 19:01 -41.20156 -71.01234 5090 ft 128 kts 288°
2026-05-07 19:01 -41.19788 -71.02299 4915 ft 125 kts 288°
2026-05-07 19:02 -41.19427 -71.03344 4708 ft 125 kts 289°
2026-05-07 19:02 -41.19063 -71.04399 4507 ft 126 kts 289°
2026-05-07 19:02 -41.18695 -71.05459 4302 ft 126 kts 290°
2026-05-07 19:02 -41.18334 -71.06502 4126 ft 126 kts 289°
2026-05-07 19:03 -41.17966 -71.07562 3941 ft 126 kts 290°
2026-05-07 19:03 -41.17600 -71.08618 3783 ft 125 kts 290°
2026-05-07 19:03 -41.17239 -71.09656 3612 ft 123 kts 289°
2026-05-07 19:03 -41.16884 -71.10680 3454 ft 122 kts 289°
2026-05-07 19:04 -41.16525 -71.11687 3314 ft 119 kts 289°
2026-05-07 19:04 -41.16176 -71.12674 3163 ft 118 kts 288°
2026-05-07 19:04 -41.15840 -71.13670 2997 ft 118 kts 288°
2026-05-07 19:04 -41.15501 -71.14665 2812 ft 119 kts 288°
2026-05-07 19:05 -41.15202 -71.15575 2759 ft 89 kts 296°
2026-05-07 19:05 -41.15020 -71.16085 2759 ft 32 kts 295°
2026-05-07 19:05 -41.14963 -71.16248 2756 ft 20 kts 296°
2026-05-07 19:05 -41.14881 -71.16326 2756 ft 14 kts 12°
2026-05-07 19:06 -41.14791 -71.16280 2756 ft 14 kts 28°
2026-05-07 19:06 -41.14668 -71.16143 2754 ft 9 kts 24°
2026-05-07 19:06 -41.14663 -71.16140 2754 ft 0 kts 24°